Location: ???????
(52.9498°N, 53.8930°E)
Time: 18:31:48
(UTC+00:00)

Daily predictions for brighter satellites

Satellite Brightness Start Highest point End
(mag) Time Altitude Azimuth Time Altitude Azimuth Time Altitude Azimuth
Gbstr 26 Del rocket 4.0 13:56:24 10° W 14:02:03 80° S 14:09:05 10° E
YAOGAN 6 3.0 14:01:31 10° SE 14:05:01 42° ENE 14:08:31 10° N
Falcon 9 debris 3.2 14:01:39 10° WSW 14:05:06 79° SSE 14:08:34 10° E
Unknown 3.2 14:02:14 10° WSW 14:05:44 76° SSE 14:09:16 10° E
YAOGAN 1 2.9 14:04:19 10° SE 14:08:26 44° ENE 14:12:35 10° N
Cosmos 2263 Rocket 2.4 14:03:41 10° SW 14:09:22 79° WNW 14:15:04 10° NNE
CSL-04 Rocket 3.8 14:06:30 10° SE 14:11:54 57° ENE 14:17:17 10° N
Cosmos 1821 Rocket 4.0 14:05:51 10° N 14:11:56 63° ENE 14:18:00 10° SSE
SL-4 R/B 2.8 14:12:04 10° W 14:15:51 43° SSW 14:19:21 10° SE
Okean-O 3.4 14:15:13 10° S 14:19:36 58° WSW 14:24:00 10° NNW
Cosmos 1833 Rocket 3.6 14:16:27 10° NNW 14:21:24 30° NE 14:26:18 10° ESE
Nadezhda 3 Rocket 4.1 14:16:18 10° S 14:22:25 59° E 14:28:39 10° NNE
Unknown 2.8 14:19:23 10° W 14:22:30 88° NNE 14:25:18 13° E
Cosmos 1726 Rocket 4.1 14:19:33 10° SSE 14:23:36 37° E 14:27:38 10° NNE
Cosmos 1461 4.1 14:20:18 10° NNW 14:23:42 25° NNE 14:26:45 12° E
Lacrosse 5 2.3 14:20:00 10° WNW 14:24:59 55° N 14:29:35 12° E
Cosmos 1271 Rocket 2.7 14:21:55 10° N 14:25:52 67° ENE 14:29:49 10° SSE
CZ-2D R/B 3.8 14:22:31 10° SE 14:26:03 36° ENE 14:29:37 10° N
Cosmos 1934 Rocket 4.1 14:22:36 10° N 14:28:49 57° ENE 14:35:04 10° SSE
SL-24 R/B - RUBIN 2 4.2 14:25:08 10° SW 14:30:05 76° NW 14:35:45 10° NE
Cosmos 2058 Rocket 3.8 14:26:42 10° SSE 14:30:29 29° E 14:34:16 10° NNE
COBE Rocket 4.0 14:26:08 10° NNE 14:31:21 73° E 14:36:29 10° S
COSMOS 2406 3.4 14:25:51 10° NNW 14:31:34 56° NE 14:37:13 10° SE
Cosmos 2227 Rocket 4.4 14:27:56 10° WNW 14:31:49 18° NNW 14:35:44 10° NNE
Unknown 4.3 14:29:33 10° SW 14:33:17 36° SSE 14:36:14 15° E
Cosmos 1953 2.3 14:29:35 10° S 14:33:35 61° E 14:37:38 10° NNE
Cosmos 2082 Rocket 3.2 14:31:24 10° NNW 14:36:24 30° NE 14:40:21 14° E
Cosmos 1703 3.7 14:33:59 10° N 14:37:44 39° ENE 14:41:27 10° SE
Cosmos 2297 Rocket 4.5 14:34:29 10° WNW 14:38:08 17° NNW 14:41:49 10° NNE
Cosmos 1758 3.5 14:34:24 10° SSW 14:38:22 74° WNW 14:42:22 10° N
SJ-6B 4.4 14:38:04 15° E 14:39:13 17° ENE 14:41:43 10° NNE
FREGAT/IRIS 4.1 14:39:55 17° ENE 14:39:58 17° ENE 14:41:52 10° NNE
Envisat 3.6 14:35:34 10° S 14:40:36 63° WSW 14:45:41 10° NNW
Cosmos 2228 3.1 14:36:55 10° S 14:41:12 56° E 14:45:29 10° NNE
Cosmos 371 Rocket 4.2 14:37:00 10° SW 14:41:42 51° WNW 14:46:25 10° NNE
Resurs 01 Rocket 3.6 14:42:56 11° ENE 14:43:33 12° NE 14:45:07 10° NNE
Cosmos 1626 3.9 14:40:24 10° NNW 14:43:52 37° W 14:47:18 10° SSW
Unknown 4.4 14:40:44 10° SSW 14:44:30 35° SSE 14:46:57 18° E
Unknown 4.4 14:40:46 10° SSW 14:44:32 35° SSE 14:46:58 18° E
BREEZE-M DEB (TANK) 3.9 14:41:48 10° W 14:45:56 64° SSW 14:55:35 11° ESE
Unknown 4.4 14:42:26 10° SW 14:46:15 36° SSE 14:48:40 19° E
COSMO-SKYMED 1 2.5 14:42:02 10° NNE 14:46:25 80° ESE 14:50:46 10° SSW
Cosmos 304 Rocket 3.8 14:43:14 10° SSW 14:48:03 87° WNW 14:52:54 10° NNE
Unknown 4.3 14:45:42 10° SW 14:49:32 38° SSE 14:51:50 20° E
Unknown 4.3 14:46:22 10° SW 14:50:12 37° SSE 14:52:27 21° E
CSL-04 Debris 4.3 14:45:06 10° SSE 14:50:33 79° WSW 14:56:05 10° NNW
Unknown 4.3 14:47:18 10° SW 14:51:08 37° SSE 14:53:22 21° E
Cosmos 921 Rocket 3.5 14:49:21 10° S 14:53:34 41° ESE 14:57:48 10° NE
ATLAS CENTAUR R/B 3.7 14:50:21 10° WNW 14:54:02 21° N 14:57:35 10° NE
Unknown 4.3 14:50:30 10° SW 14:54:20 38° SSE 14:56:26 22° E
Cosmos 1939 Rocket 2.8 14:51:04 10° SSE 14:55:00 64° ENE 14:59:00 10° N
ADEOS Rocket 4.4 14:49:16 10° NNE 14:55:25 25° E 15:01:19 10° SE
Cosmos 1726 2.4 14:52:10 10° SSE 14:55:38 40° E 14:59:05 10° NNE
Unknown 4.2 14:53:51 10° SW 14:57:44 40° SSE 14:59:44 24° E
Unknown 4.2 14:55:29 10° SW 14:59:23 41° SSE 15:01:19 25° E
Cosmos 1953 Rocket 4.0 14:55:55 10° NNW 15:00:18 66° W 15:04:37 10° S
Unknown 4.1 14:57:10 10° SW 15:01:05 42° SSE 15:02:57 25° E
Unknown 4.1 14:58:48 10° SW 15:02:44 43° SSE 15:04:33 26° E
Lacrosse 5 rocket 2.5 14:59:20 10° WNW 15:02:47 35° SW 15:06:22 10° SSE
SJ 16-02 3.4 15:01:09 10° NNE 15:03:08 13° NE 15:03:40 12° NE
USA 116 3.0 15:00:06 10° NNE 15:03:13 76° ESE 15:06:22 10° S
Meteor 1-16 Rocket 4.1 14:58:57 10° S 15:04:29 67° E 15:09:54 10° NNE
Unknown 4.1 15:02:03 10° SW 15:06:00 44° SSE 15:07:42 28° E
Cosmos 1356 3.6 15:04:22 10° S 15:07:40 45° E 15:10:59 10° NNE
Unknown 4.0 15:03:46 10° SW 15:07:44 45° SSE 15:09:23 29° E
Cosmos 1844 Rocket 2.6 15:02:44 10° SSW 15:08:23 76° ESE 15:14:02 10° NNE
Cosmos 2084 3.8 15:04:17 10° SSW 15:08:37 46° SE 15:10:57 24° ENE
Unknown 4.0 15:05:22 10° SW 15:09:20 46° SSE 15:10:56 30° E
Unknown 4.0 15:06:58 10° SW 15:10:56 46° SSE 15:12:27 31° E
Unknown 4.0 15:07:37 10° SW 15:11:36 47° SSE 15:13:07 31° E
CZ-4 R/B 3.0 15:07:57 10° SSW 15:11:50 38° W 15:15:49 10° NNW
Unknown 4.0 15:10:09 10° SW 15:14:07 46° SSE 15:15:29 33° ESE
Cosmos 839 Rocket 4.2 15:09:31 10° NW 15:15:41 74° SW 15:22:24 10° SSE
Cosmos 1328 4.0 15:12:55 10° NNW 15:16:56 74° W 15:20:54 10° S
Unknown 3.9 15:13:28 10° SW 15:17:28 48° SSE 15:18:43 35° ESE
Cosmos 1242 Rocket 3.1 15:14:23 10° NNW 15:18:03 61° W 15:21:41 10° S
Cosmos 1606 Rocket 4.2 15:14:11 10° SSW 15:18:32 58° WNW 15:22:52 10° N
FALCON 9 DEB 3.1 15:15:15 10° W 15:18:44 87° N 15:19:42 45° E
ASTEX 1 4.0 15:14:02 10° N 15:18:54 61° W 15:23:46 10° SSW
Unknown 3.1 15:15:31 10° W 15:19:04 87° N 15:20:03 45° E
Unknown 3.9 15:15:06 10° SW 15:19:06 49° SSE 15:20:17 36° ESE
Meteor 2-10 3.8 15:15:46 10° S 15:20:50 70° E 15:25:52 10° NNE
Cosmos 1932 4.4 15:14:32 10° SW 15:20:51 87° SE 15:27:20 10° NE
Unknown 3.8 15:16:56 10° SW 15:20:58 52° SSE 15:22:09 38° ESE
SPOT 3 Rocket 3.8 15:18:31 25° SE 15:21:13 46° ENE 15:26:11 10° N
Unknown 3.4 15:17:38 10° WSW 15:21:32 74° SSE 15:22:45 41° E
Cosmos 2278 Rocket 2.9 15:16:51 10° SSE 15:21:41 30° ESE 15:22:30 28° E
Unknown 3.9 15:18:22 10° SW 15:22:23 50° SSE 15:23:28 39° ESE
Ariane Rocket 3.1 15:18:00 10° SSE 15:23:06 81° WSW 15:28:15 10° NNW
Unknown 3.8 15:20:04 10° SW 15:24:05 52° SSE 15:25:06 40° ESE
Cosmos 1844 3.6 15:18:32 10° SSW 15:24:15 79° ESE 15:30:04 10° NNE
Cosmos 1908 3.2 15:20:50 10° S 15:24:41 59° E 15:28:33 10° NNE
CZ-4C R/B 4.5 15:20:13 10° WNW 15:26:33 34° WSW 15:33:35 10° S
Unknown 3.3 15:22:50 10° WSW 15:26:40 81° S 15:27:39 48° E
Unknown 3.8 15:23:19 10° SW 15:27:21 53° SSE 15:28:15 43° ESE
Unknown 3.8 15:25:02 10° SW 15:29:04 54° SSE 15:29:54 45° ESE
Unknown 3.2 15:25:33 10° W 15:29:18 88° S 15:30:07 53° E
Unknown 3.8 15:26:58 10° W 15:29:24 32° SSW 15:29:25 32° SSW
Unknown 3.8 15:26:40 10° SW 15:30:43 55° SSE 15:31:29 46° ESE
Unknown 3.7 15:28:20 10° SW 15:32:24 56° SSE 15:33:07 48° ESE
SWAS 4.3 15:30:32 10° SSW 15:34:47 73° ESE 15:37:16 25° NE
Cosmos 1992 Rocket 4.3 15:29:39 10° SW 15:34:52 68° WNW 15:40:06 10° NNE
Unknown 2.9 15:31:28 10° W 15:34:53 88° S 15:35:09 75° ESE
Unknown 3.7 15:31:38 10° SW 15:35:41 58° SSE 15:36:18 51° ESE
Cosmos 1812 Rocket 4.4 15:37:27 33° NE 15:37:27 33° NE 15:40:22 10° NNE
Cosmos 2058 3.5 15:32:11 10° N 15:35:47 37° ENE 15:35:47 37° ENE
Unknown 3.6 15:33:23 10° WSW 15:37:28 60° SSE 15:38:01 53° ESE
Unknown 3.6 15:33:32 10° WSW 15:37:38 62° SSE 15:38:14 54° ESE
Cosmos 1777 Rocket 4.1 15:33:58 10° NNW 15:39:13 76° WSW 15:43:02 19° SSE
Unknown 3.6 15:35:08 10° WSW 15:39:14 63° SSE 15:39:46 56° ESE
H-2A R/B 2.2 15:38:23 36° SE 15:40:19 55° ENE 15:45:35 10° N
ATLAS 5 CENTAUR R/B 1.9 15:36:21 10° WSW 15:40:45 69° NW 15:44:02 21° NE
Falcon 9 debris 3.0 15:38:40 10° W 15:42:08 87° S 15:42:09 87° S
Unknown 3.6 15:38:11 10° WSW 15:42:16 61° SSE 15:42:38 58° SE
NOSS 3-3 (A) 4.4 15:35:24 10° NW 15:42:36 71° NE 15:46:30 33° ESE
NOSS 3-3 (C) 4.4 15:35:30 10° NW 15:42:42 71° NE 15:46:35 33° ESE
Unknown 3.0 15:39:27 10° W 15:42:59 89° S 15:43:02 87° ESE
SJ-11-01 4.2 15:42:28 23° SSE 15:45:25 89° ENE 15:50:10 10° NNW
Unknown 3.6 15:41:30 10° WSW 15:45:37 63° SSE 15:45:50 62° SE
Unknown 3.5 15:43:13 10° WSW 15:47:19 64° SSE 15:47:30 63° SE
Unknown 3.5 15:44:49 10° WSW 15:48:55 65° SSE 15:49:02 65° SSE
Gbstr 26 Del rocket 4.2 15:43:07 10° W 15:49:18 72° SSW 15:52:19 37° ESE
Cosmos 1339 Rocket 4.4 15:43:44 10° S 15:49:49 89° W 15:56:01 10° N
CZ-2C R/B 3.6 15:48:46 41° E 15:49:56 47° ENE 15:55:29 10° N
Unknown 3.5 15:46:31 10° WSW 15:50:38 66° SSE 15:50:41 66° SSE
Cosmos 2263 Rocket 4.3 15:49:41 10° W 15:54:13 24° NW 15:58:44 10° NNE
SL-4 R/B 4.4 15:52:56 10° WSW 15:54:39 13° SW 15:56:04 11° SSW
Unknown 3.6 15:53:07 10° WSW 15:57:03 68° S 15:57:03 68° S
Unknown 3.6 15:53:18 10° WSW 15:57:11 70° S 15:57:11 70° S
Unknown 4.3 15:55:10 10° W 15:57:24 35° WSW 15:57:24 35° WSW
Unknown 3.6 15:54:46 10° WSW 15:58:38 67° SSW 15:58:38 67° SSW
Unknown 3.7 15:56:27 10° WSW 16:00:16 67° SSW 16:00:16 67° SSW
Cosmos 1076 Rocket 3.4 15:56:22 10° N 16:00:47 87° E 16:01:13 72° SSE
Cosmos 1459 Rocket 3.9 15:54:41 10° N 16:00:52 69° ENE 16:03:07 40° SSE
USA 186 4.0 16:03:17 17° NNW 16:03:17 17° NNW 16:04:02 10° NNW
Unknown 3.7 15:58:06 10° WSW 16:01:50 66° SSW 16:01:50 66° SSW
Cosmos 2084 Rocket 3.7 15:58:00 10° NW 16:02:20 56° NNE 16:02:20 56° NNE
Cosmos 1461 2.8 15:59:10 10° NW 16:03:09 83° W 16:03:09 83° W
Unknown 3.8 15:59:43 10° WSW 16:03:25 65° SSW 16:03:25 65° SSW
Cosmos 1833 Rocket 2.8 16:00:14 10° NW 16:05:51 72° WSW 16:08:01 38° S
Cosmos 1727 Rocket 3.8 16:00:30 10° S 16:06:41 86° E 16:12:55 10° N
Unknown 3.9 16:03:06 10° WSW 16:06:41 62° SW 16:06:41 62° SW
Cosmos 1802 Rocket 4.0 16:01:06 10° N 16:07:33 66° ENE 16:09:14 48° SE
Lacrosse 5 1.7 16:03:11 10° WNW 16:08:17 88° SSW 16:08:47 73° SE
Starlink (trailer) 3.9 16:04:44 10° WSW 16:08:14 60° SW 16:08:14 60° SW
Unknown 4.0 16:06:25 10° WSW 16:09:51 58° SW 16:09:51 58° SW
Unknown 4.0 16:08:02 10° WSW 16:11:25 57° SW 16:11:25 57° SW
Unknown 4.0 16:08:11 10° WSW 16:11:31 59° WSW 16:11:31 59° WSW
ARGOS 3.0 16:11:25 53° SSE 16:12:48 87° ENE 16:18:16 10° NNW
SJ-6B 3.2 16:13:43 61° W 16:13:43 61° W 16:17:17 10° NNW
Unknown 4.3 16:14:40 10° WSW 16:17:48 50° WSW 16:17:48 50° WSW
Unknown 4.3 16:14:45 10° WSW 16:17:52 49° WSW 16:17:52 49° WSW
Resurs 01 Rocket 2.4 16:20:30 42° NNE 16:20:30 42° NNE 16:23:37 10° N
Unknown 4.3 16:15:33 10° WSW 16:18:38 49° WSW 16:18:38 49° WSW
Cosmos 1898 Rocket 3.7 16:14:45 10° NNW 16:19:35 58° NE 16:19:35 58° NE
Cosmos 2173 Rocket 3.9 16:13:52 10° N 16:20:14 90° ENE 16:22:25 44° S
Cosmos 2082 Rocket 2.2 16:15:21 10° NNW 16:21:05 78° WSW 16:22:13 58° S
Cosmos 1864 Rocket 4.5 16:16:20 10° N 16:22:18 58° ENE 16:22:18 58° ENE
SL-08 RB Rocket 4.0 16:26:42 61° N 16:26:42 61° N 16:30:29 10° NNW
Cosmos 292 Rocket 4.5 16:25:59 10° SW 16:30:37 52° WNW 16:35:18 10° NNE
Okean 3 Rocket 4.4 16:29:46 10° N 16:33:00 46° N 16:33:00 46° N
ATLAS CENTAUR R/B 3.5 16:30:48 10° NW 16:34:17 22° N 16:34:17 22° N
Cosmos 1725 Rocket 3.9 16:29:17 10° N 16:35:27 69° ENE 16:35:27 69° ENE
Cosmos 2100 Rocket 4.2 16:29:42 10° NNW 16:35:55 69° W 16:38:18 38° SSW
ADEOS Rocket 3.4 16:34:02 10° NNE 16:41:54 88° ESE 16:49:25 10° SSW
SJ 16-02 2.9 16:38:21 10° NNW 16:40:40 29° N 16:40:40 29° N
Cosmos 2233 Rocket 4.4 16:37:29 10° N 16:42:32 48° NE 16:42:32 48° NE
Cosmos 1000 Rocket 4.3 16:43:33 77° S 16:44:03 89° E 16:50:21 10° N
In-Cosmos 22 Rocket 4.5 16:46:10 10° NNW 16:51:26 60° W 16:51:33 60° WSW
Cosmos 1844 Rocket 4.5 16:47:56 10° W 16:52:51 30° NW 16:57:47 10° NNE
Cosmos 2016 Rocket 4.2 16:56:54 10° NNW 17:03:05 67° W 17:03:30 65° WSW
Cosmos 2061 Rocket 4.3 16:58:29 10° NNW 17:04:41 62° W 17:05:18 59° WSW
Cosmos 2278 Rocket 2.7 16:59:49 10° SW 17:12:13 - NNE 17:04:32 54° W
H-2A R/B 3.7 17:19:02 27° WSW 17:20:02 29° W 17:24:42 10° NNW
Terra 4.2 17:28:52 16° N 17:28:52 16° N 17:29:53 10° N
ATLAS 5 CENTAUR R/B 3.6 17:22:06 10° WNW 17:25:35 28° NNW 17:25:35 28° NNW
CZ-2C R/B 4.4 17:29:50 39° W 17:29:54 39° W 17:35:20 10° NNW
Lacrosse 5 4.3 17:46:32 10° WNW 17:47:59 17° W 17:47:59 17° W
Resurs 01 Rocket 4.4 17:58:05 15° WNW 17:58:05 15° WNW 17:59:23 10° NW
Cosmos 2227 Rocket 4.4 18:00:43 10° NNW 18:03:17 18° N 18:03:17 18° N
Cosmos 2297 Rocket 4.4 18:06:49 10° NNW 18:09:11 18° N 18:09:11 18° N
CENTAUR R/B 4.3 20:48:40 31° NNE 20:48:40 31° NNE 20:53:23 10° NE
Cosmos 1980 Rocket 4.2 22:02:11 24° NE 22:02:11 24° NE 22:04:25 10° NE
SL-16 R/B 4.5 22:12:58 19° NNW 22:12:58 19° NNW 22:14:38 10° NNW
ATLAS 3B R/B 3.9 22:22:11 33° N 22:22:58 34° N 22:28:59 10° ENE
Resurs 1-4 Rocket 3.9 22:27:12 10° NNE 22:29:27 26° NNE 22:29:27 26° NNE
Lacrosse 4 Rocket 4.4 22:38:41 13° NE 22:38:41 13° NE 22:39:12 10° NE
CENTAUR R/B 4.0 22:35:51 31° NNW 22:38:33 41° NNE 22:46:16 10° E
USA 238 DEB 4.5 22:39:11 43° NNW 22:40:54 51° NNE 22:48:01 10° ESE
USA 238 4.5 22:39:17 42° NNW 22:41:01 50° NNE 22:48:06 10° ESE
SL-16 R/B 3.3 22:52:31 40° ENE 22:52:31 40° ENE 22:56:41 10° NE
Cosmos 1697 Rocket 4.1 22:56:15 32° N 22:56:15 32° N 22:59:35 10° NNE
CZ-2D R/B 3.8 22:51:33 10° N 22:53:52 27° N 22:53:52 27° N
Exosat Rocket 4.5 22:59:10 77° SE 22:59:24 78° ESE 23:05:57 10° NNE
NOSS 3-2 (A) 4.4 23:05:10 32° NNW 23:08:34 58° NNE 23:16:31 10° ESE
ADEOS II 3.0 23:03:22 10° NNE 23:07:07 46° NE 23:07:07 46° NE
Meteor 2-4 Rocket 4.3 23:12:03 51° NNE 23:12:03 51° NNE 23:16:16 10° NNE
USA 267 3.3 23:15:05 10° ENE 23:21:35 62° SE 23:21:48 62° SSE
Cosmos 2322 Rocket 2.4 23:25:10 65° E 23:25:10 65° E 23:30:15 10° NE
NOSS 3-2 (C) 4.4 23:25:13 24° NW 23:29:36 56° NNE 23:37:32 10° ESE
ARIANE 5 R/B 3.2 23:30:59 10° NNE 23:34:33 47° N 23:34:33 47° N
Cosmos 2360 Rocket 2.9 23:36:20 43° SE 23:37:22 47° ESE 23:42:46 10° NE
Nadezhda 1 Rocket 3.9 23:33:50 10° N 23:40:16 88° W 23:41:47 56° S
USA 229 DEB 4.0 23:41:58 50° NW 23:42:43 52° NNW 23:49:39 10° NE
USA 229 4.0 23:42:04 50° NW 23:42:50 52° NNW 23:49:44 10° NE
Cosmos 1980 Rocket 3.1 23:43:57 35° NNW 23:43:57 35° NNW 23:48:26 10° NNE
NOSS 2-3 (E) 4.1 23:44:34 65° NNE 23:44:34 65° NNE 23:49:39 10° NE
Cosmos 1745 Rocket 4.0 23:44:57 48° S 23:46:44 77° E 23:53:00 10° NNE
NOSS 3-1 (A) 3.5 23:46:33 62° NW 23:46:54 63° NW 23:53:46 10° NE
IDEFIX/ARIANE 42P 3.7 23:42:37 10° NNE 23:47:35 40° E 23:51:16 17° SSE
Spot 4 Rocket 4.2 23:46:14 10° NNE 23:50:39 62° NNW 23:50:39 62° NNW
NOSS 2-3 (D) 4.0 23:52:03 68° N 23:52:03 68° N 23:57:22 10° NE
